Location: Colle San Luigi
(43.5500°N, 13.4167°E)
Time: 03:08:54
(UTC+00:00)

SL-16 R/B - Pass Details

Date: 09 April 2020
Orbit: 985 x 1007 km, 99.5° (Epoch: 02 June)

Event Time Altitude Azimuth Distance (km) Brightness Sun altitude
Exits shadow 23:48:43 33° 59° (ENE) 1,606 3.8 -37.6°
Drops below altitude 10° 23:53:57 10° 2° (N) 2,774 5.6 -37.3°
Sets 23:56:39 0° 353° (N) 3,724 6.4 -37.2°
